User: anonymous   Login
Location: Unspecified
(0.0000°N, 0.0000°E)
Time: 19:13:32
(UTC+00:00)
Language:

STARLINK-34494 - Orbit

View from above orbital plane
View from above orbital plane
View from above satellite
View from above satellite

Ground track
Ground track

The orbit is defined by the following mean orbital elements,

1 64611U          26145.23253920 +.00000000 +00000-0 +45838-3 0 00006
2 64611  53.1587 339.7209 0000980  92.8894 267.2219 15.30200128    00
Epoch (UTC): 25 May 2026 05:34:51
Eccentricity: 0.0000980
inclination: 53.1587°
perigee height: 475 km
apogee height: 476 km
right ascension of ascending node: 339.7209°
argument of perigee: 92.8894°
revolutions per day: 15.30200128
mean anomaly at epoch: 267.2219°

The dashed part of the orbit path shows where the satellite is in the earth's shadow,  

DLR